Weather History for Walla Walla, WA

Change the Weather History Date:

Tuesday, March 13, 2012

  Actual Average Record
Temperature  
Mean Temperature 46 °F -  
Max Temperature 60 °F 54 °F 72 °F (2003)
Min Temperature 33 °F 38 °F 26 °F (1954)
Degree Days  
Heating Degree Days 19    
Moisture  
Dew Point 30 °F    
Average Humidity 63    
Maximum Humidity 93    
Minimum Humidity 32    
Precipitation  
Precipitation 0.09 in - - ()
Sea Level Pressure  
Sea Level Pressure 29.62 in    
Wind  
Wind Speed 19 mph (SSW)    
Max Wind Speed 34 mph    
Max Gust Speed 43 mph    
Visibility 9 miles    
Events Rain , Snow    
Averages and records for this station are not official NWS values.
T = Trace of Precipitation, MM = Missing Value Source: NWS Daily Summary

Daily Weather History Graph

Daily Weather History Graph

Search for Another Location

Airport:

Trip Planner

Search our weather history database for the weather conditions in past years. The results will help you decide how hot, cold, wet, or windy it might be!

Date:

Astronomy

Mar. 13, 2012 Rise Set
Actual Time 7:08 AM PDT 6:57 PM PDT
Civil Twilight 6:38 AM PDT 7:26 PM PDT
Nautical Twilight 6:04 AM PDT 8:01 PM PDT
Astronomical Twilight 5:28 AM PDT 8:37 PM PDT
Moon 12:55 AM PDT (3/13) 10:04 AM PDT (3/13)
Length of Visible Light 12h 48m
Length of Day
11h 48m
Waning Gibbous, 64% of the Moon is Illuminated
Mar 13
Waning Gibbous
Mar 14
Last Quarter
Mar 22
New
Mar 30
First Quarter
Apr 6
Full

Hourly Weather History & Observations

Time (PDT) Temp. Windchill Dew Point Humidity Pressure Visibility Wind Dir Wind Speed Gust Speed Precip Events Conditions
12:53 AM 59.0 °F - 32.0 °F 36% 29.31 in 10.0 mi South 20.7 mph 27.6 mph N/A   Overcast
1:53 AM 59.0 °F - 30.0 °F 33% 29.30 in 10.0 mi South 21.9 mph 32.2 mph N/A   Overcast
2:53 AM 59.0 °F - 28.9 °F 32% 29.29 in 10.0 mi South 28.8 mph 34.5 mph N/A   Mostly Cloudy
3:53 AM 57.9 °F - 28.0 °F 32% 29.28 in 10.0 mi South 25.3 mph 36.8 mph N/A   Overcast
4:53 AM 57.9 °F - 28.0 °F 32% 29.30 in 10.0 mi SSW 26.5 mph 35.7 mph N/A   Overcast
5:05 AM 48.2 °F - 35.6 °F 62% 29.35 in 10.0 mi West 34.5 mph 42.6 mph N/A   Overcast
5:53 AM 42.1 °F 35.7 °F 35.1 °F 76% 29.47 in 10.0 mi SW 11.5 mph 28.8 mph 0.00 in   Overcast
6:26 AM 39.2 °F 30.5 °F 32.0 °F 75% 29.51 in 9.0 mi SW 16.1 mph 26.5 mph 0.01 in Rain Light Rain
6:53 AM 36.0 °F 25.3 °F 32.0 °F 86% 29.57 in 3.0 mi South 19.6 mph - 0.04 in Rain Rain
6:56 AM 35.6 °F 24.5 °F 32.0 °F 87% 29.56 in 2.5 mi South 20.7 mph - 0.01 in Snow Light Snow
7:02 AM 33.8 °F 22.2 °F 32.0 °F 93% 29.56 in 1.8 mi South 20.7 mph - 0.01 in Snow Light Snow
7:44 AM 33.8 °F 24.3 °F 32.0 °F 93% 29.57 in 2.5 mi South 13.8 mph - 0.05 in Snow Light Snow
7:51 AM 33.8 °F 24.8 °F 32.0 °F 93% 29.57 in 6.0 mi SSE 12.7 mph - 0.05 in Snow Light Snow
7:53 AM 35.1 °F 26.9 °F 32.0 °F 89% 29.58 in 7.0 mi SSE 11.5 mph - 0.05 in Snow Light Snow
8:09 AM 37.4 °F 28.5 °F 32.0 °F 81% 29.57 in 10.0 mi South 15.0 mph - 0.00 in Rain Light Rain
8:53 AM 39.0 °F 29.0 °F 30.9 °F 73% 29.59 in 10.0 mi South 20.7 mph 26.5 mph 0.00 in Rain Light Rain
9:38 AM 39.2 °F 30.2 °F 30.2 °F 70% 29.62 in 10.0 mi South 17.3 mph - 0.00 in Rain Light Rain
9:45 AM 39.2 °F 30.2 °F 30.2 °F 70% 29.62 in 10.0 mi SSW 17.3 mph - 0.00 in Rain Light Rain
9:53 AM 39.9 °F 31.8 °F 32.0 °F 73% 29.64 in 10.0 mi SSW 15.0 mph - 0.00 in   Overcast
10:53 AM 39.9 °F 32.9 °F 33.1 °F 77% 29.65 in 10.0 mi SSW 11.5 mph - N/A   Overcast
11:53 AM 43.0 °F 38.8 °F 33.1 °F 68% 29.68 in 10.0 mi SSW 6.9 mph - N/A   Clear
12:53 PM 46.9 °F - 28.0 °F 48% 29.69 in 10.0 mi SSW 18.4 mph - N/A   Scattered Clouds
1:53 PM 48.9 °F - 26.1 °F 41% 29.70 in 10.0 mi SW 23.0 mph 33.4 mph 0.00 in   Mostly Cloudy
2:53 PM 48.0 °F - 23.0 °F 37% 29.70 in 10.0 mi SSW 16.1 mph 27.6 mph N/A   Overcast
3:53 PM 46.0 °F 37.6 °F 27.0 °F 47% 29.76 in 10.0 mi West 24.2 mph 28.8 mph 0.00 in   Mostly Cloudy
4:53 PM 43.0 °F 34.8 °F 28.9 °F 58% 29.81 in 10.0 mi WSW 18.4 mph 32.2 mph N/A   Scattered Clouds
5:53 PM 42.1 °F 34.9 °F 30.0 °F 62% 29.86 in 10.0 mi South 13.8 mph - N/A   Mostly Cloudy
6:53 PM 42.1 °F 34.2 °F 28.0 °F 58% 29.88 in 10.0 mi South 16.1 mph - N/A   Mostly Cloudy
7:53 PM 41.0 °F 32.5 °F 28.0 °F 60% 29.90 in 10.0 mi SSW 17.3 mph - N/A   Mostly Cloudy
8:53 PM 39.9 °F 32.9 °F 28.0 °F 63% 29.91 in 10.0 mi SSW 11.5 mph - N/A   Partly Cloudy
9:53 PM 39.0 °F 33.4 °F 26.1 °F 60% 29.93 in 10.0 mi SW 8.1 mph - N/A   Clear
10:53 PM 39.0 °F - 26.1 °F 60% 29.94 in 10.0 mi Calm Calm - N/A   Mostly Cloudy
11:53 PM 37.9 °F - 25.0 °F 60% 29.94 in 10.0 mi Calm Calm - N/A   Overcast